2012 CS
ephemeris date magn radius delta ra dec elong phase
Today4 Sep 202625.00.785 AU1.486 AU08h55m+16°44'29.5°39.3°
2012 CS - 2026-09-04
astro.vanbuitenen.nl


 
-1 year
-1 month
-1 day
Now
+1 day
+1 month
+1 year

The interactive orbit chart above shows the body's path through the solar system and its position at the given date. Green and blue lines are shown perpendicular to the ecliptic plane: Green if the path is above the ecliptic plane, blue if it is below. (Left-click and drag to rotate the view; Right-click and drag to move the view; Use scroll wheel to zoom in our out.)

The orbital elements of 2012 CS are:

            e (Eccentricity)                : 0.7107717
            a (Semimajor axis)              : 2.3786043
            i (Inclination)                 : 1.14041
            Ω (Longitude of ascending node) : 168.59321
            ω (Argument of perihelion)      : 238.33750
            M (Mean anomaly)                : 342.54239
            Epoch                           : 2026 Jun 09

            L (Longitude of perihelion)     : 226.92564
            B (Latitude of perihelion)      : -0.97065
            P (Orbital period in years)     : 3.67            
        

The light curve chart below shows the estimated development of the minor planet's magnitude.


The all-sky chart below shows the path of the minor planet over the same period as the light curve. The current position is marked yellow.





The following chart shows the path of the minor planet in the next few days. The field of view is optimized for (~10x50) binoculars and finderscopes.




Ephemerides:
Date       Time       RA (2000)    DEC (2000)    delta   radius  elong  phase   PA    magn
2026-09-04 00:00 UT   08 55 37.0   +16 44 17     1.486    0.785   29.5   39.3   285   25.0 
2026-09-04 12:32 UT   08 57 52.6   +16 35 01     1.492    0.789   29.5   38.9   285   25.0 
2026-09-05 00:00 UT   08 59 55.9   +16 26 31     1.498    0.793   29.4   38.6   285   25.0 
2026-09-06 00:00 UT   09 04 11.1   +16 08 37     1.511    0.802   29.3   38.0   286   25.0 
2026-09-07 00:00 UT   09 08 22.7   +15 50 37     1.523    0.810   29.2   37.4   286   25.1 
2026-09-08 00:00 UT   09 12 30.6   +15 32 32     1.535    0.819   29.2   36.8   286   25.1 
2026-09-09 00:00 UT   09 16 35.1   +15 14 23     1.548    0.828   29.1   36.3   286   25.1 
2026-09-10 00:00 UT   09 20 36.0   +14 56 10     1.560    0.837   29.1   35.8   287   25.1 
2026-09-11 00:00 UT   09 24 33.5   +14 37 55     1.572    0.847   29.0   35.3   287   25.2 
2026-09-12 00:00 UT   09 28 27.6   +14 19 37     1.583    0.856   29.0   34.8   287   25.2 


    Terminology:
            
    delta:  distance between minor planet and earth in AU
    radius: distance between minor planet and sun in AU
    magn:   magnitude (brightness) estimate    
    ra:     right ascension in hours (24h = 360deg)
    dec:    declination in degrees
    elong:  elongation in degrees (angle sun-earth-minor planet)    
    phase:  phase angle in degrees (angle sun-minor planet-earth)        
    AU:     Astronomical Unit (mean distance between earth and sun: 149597870.7 km
    

Orbital elements provided by the MPC (Minor Planet Center).
Calculations by a modified version of AAPlus, a C# implementation of the AA+ project by PJ Naughter from the algorithms presented in the book "Astronomical Algorithms" by Jean Meeus.
NGC2000 dso catalog and star labels from VizieR as provided by the Strasbourg astronomical Data Center.
Tycho2 catalog from the ESO archive.